Location: California Mobile Home Park
(33.7461°N, 117.9092°W)
Time: 18:35:51
(UTC+00:00)

Meteor 1-5 Rocket - Pass Details

Date: 29 June 2022
Orbit: 789 x 914 km, 81.2° (Epoch: 06 August)

Event Time Altitude Azimuth Distance (km) Brightness Sun altitude
Rises 12:11:27 0° 194° (SSW) 3,331 6.9 -6.6°
Reaches altitude 10° 12:13:52 10° 198° (SSW) 2,387 6.1 -6.2°
Maximum altitude 12:19:12 64° 279° (W) 880 4.2 -5.3°
Drops below altitude 10° 12:24:28 10° 1° (N) 2,360 7.0 -4.3°
Sets 12:26:51 0° 5° (N) 3,290 7.8 -3.9°
